Location: Christchurch
(43.5330°S, 172.6330°E)
Time: 16:56:59
(UTC+12:00)

CENTAUR R/B - Pass Details

Date: 24 January 2019
Orbit: 787 x 1401 km, 63.5° (Epoch: 15 April)

Event Time Altitude Azimuth Distance (km) Brightness Sun altitude
Exits shadow 23:29:01 26° 66° (ENE) 2,260 3.9 -20.3°
Maximum altitude 23:29:17 26° 69° (ENE) 2,252 3.9 -20.3°
Drops below altitude 10° 23:35:05 10° 121° (ESE) 3,055 5.1 -20.9°
Sets 23:38:07 0° 133° (SE) 3,919 5.8 -21.2°
